Location: Chervonnoye
(48.6000°N, 34.4000°E)
Time: 12:19:46
(UTC+00:00)

deb Kosmos-2237 - Pass Details

Date: 23 June 2021
Orbit: 850 x 1045 km, 71.0° (Epoch: 25 July)

Event Time Altitude Azimuth Distance (km) Brightness Sun altitude
Rises 21:35:47 0° 294° (WNW) 3,693 ? -18.0°
Reaches altitude 10° 21:40:48 10° 328° (NNW) 2,795 ? -18.0°
Maximum altitude 21:42:39 11° 345° (NNW) 2,724 ? -18.0°
Drops below altitude 10° 21:44:31 10° 1° (N) 2,826 ? -18.0°
Sets 21:49:42 0° 35° (NE) 3,809 ? -18.0°
